Skip Page Navigation
NASA JPL Caltech
NASA Logo - Jet Propulsion Laboratory + View the NASA Portal
+ Center for Near-Earth Object Studies
JPL Home Earth Solar System Stars & Galaxies Technology
JPL Solar System Dynamics
BODIES ORBITS EPHEMERIDES TOOLS PHYSICAL DATA DISCOVERY FAQ SITE MAP
IMPORTANT: The SSD Announcement email list is now available. Major changes are coming in the near future, including possible hostname and/or URL changes. To be notified of such changes, subscribe to this email list.

Please visit this page for more details.


JPL Small-Body Database Browser
Search: [ help ]  
85552 (1997 YR7)
Classification: Main-belt Asteroid          SPK-ID: 2085552
Ephemeris | Orbit Diagram | Orbital Elements | Mission Design | Physical Parameters | Discovery Circumstances | Close-Approach Data ]

[ show orbit diagram ]
Orbital Elements at Epoch 2459000.5 (2020-May-31.0) TDB
Reference: JPL 23 (heliocentric ecliptic J2000)
 Element Value Uncertainty (1-sigma)   Units 
e .1122211512925198 6.2683e-08  
a 2.571506872305049 1.4909e-08 au
q 2.282929410538349 1.6207e-07 au
i 13.94229399844864 4.6553e-06 deg
node 299.7166027627858 2.3478e-05 deg
peri 92.01368094606318 3.3046e-05 deg
M 220.1639051678127 2.2437e-05 deg
tp 2459585.555069801259
(2022-Jan-06.05506980)
9.5212e-05 TDB
period 1506.190696909916
4.12
1.3098e-05
3.586e-08
d
yr
n .2390135596631768 2.0786e-09 deg/d
Q 2.860084334071748 1.6582e-08 au
  Orbit Determination Parameters
   # obs. used (total)      1023  
   data-arc span      7797 days (21.35 yr)  
   first obs. used      1997-12-25  
   last obs. used      2019-05-01  
   planetary ephem.      DE431  
   SB-pert. ephem.      SB431-N16  
   condition code      0  
   norm. resid. RMS      .49061  
   source      ORB  
   producer      Otto Matic  
   solution date      2020-Feb-23 20:34:09  

Additional Information
 Earth MOID = 1.3394 au 
 Jupiter MOID = 2.56276 au 
 T_jup = 3.379 
[ show covariance matrix ]

Ephemeris | Orbit Diagram | Orbital Elements | Mission Design | Physical Parameters | Discovery Circumstances | Close-Approach Data ]

Physical Parameter Table
Parameter Symbol Value Units Sigma Reference Notes
absolute magnitude H 14.5   n/a MPO436373  
diameter diameter 3.340 km 0.185 urn:nasa:pds:neowise_diameters_albedos::2.0[mainbelt] (http://adsabs.harvard.edu/abs/2011ApJ...741...68M)  
rotation period rot_per 3.735 h n/a LCDB (Rev. 2019-August); Warner et al., 2009 Result based on less than full coverage, so that the period may be wrong by 30 percent or so.
Published Reference List:
[Waszczak, A.; Chang, C.-K.; Ofeck, E.O.; Laher, F.; et al. (2015) Astron. J. 150, A75.]
geometric albedo albedo 0.398   0.088 urn:nasa:pds:neowise_diameters_albedos::2.0[mainbelt] (http://adsabs.harvard.edu/abs/2011ApJ...741...68M)  

85552 (1997 YR7)          Discovered 1997-Dec-28 by Kobayashi, T. at Oizumi
Reference: 20040830/Numbers.arcLast Updated: 2004-09-06

[ show close-approach data ]
Alternate Designations
 1997 YR7 = 2000 NC25 
Ephemeris | Orbit Diagram | Orbital Elements | Mission Design | Physical Parameters | Discovery Circumstances | Close-Approach Data ]
ABOUT SSD CREDITS/AWARDS PRIVACY/COPYRIGHT GLOSSARY LINKS
FirstGov 2020-Apr-02 14:04 UT
(server date/time)  
NASA Home Page
Site Manager:   Ryan S. Park
Webmaster  Alan B. Chamberlin